CZ-4C DEB, 44616

Orbit data source: Space-Track

CZ-4C DEB, 44616 is space debris in SSO originally from a launch on Sat, 31 Mar 2018 UTC launched from the Taiyaun Space Center, China (TSC). Debris objects in space refer to the collection of defunct objects orbiting the Earth. Examples of debris include non-operational satellites, rocket bodies, and fragments generated from explosions, collisions, or faulty payload assembly.

Loading next visibility...
Identifier
44616, 2018-031K
Orbit
SSO
Country
Flag of CNCN / PRC
Related business
Manufacturer
Unknown
Mission
Spacecraft
Bus & Motor
Unknown
Mass
Unknown
Launch date (UTC)
2018-03-31 (8 years ago)
Launch vehicle
Unknown
Launch site
Taiyaun Space Center, China (TSC)
Object type
Payload
Rocket body
Debris
Shape & HBR
Unknown shape, 0.1 m
Radar Cross Section
Small (<0.1 m²)

Expand to show TLE details & history
Last TLE update: 4 days ago

TLE from 4 days ago
0 CZ-4C DEB
1 44616U 18031K   25349.97953356  .00004569  00000-0  42813-3 0  9999
2 44616  97.8132  70.6716 0005368 167.5764 192.5590 14.94520515398836
Epoch: 2025-12-15T23:30Z
TLE epoch observation values (Epoch: 2025-12-15T23:30:31.699Z)
Latitude
0.00003°
Longitude
-6.83081°
Altitude
590.554 km
Speed
7.563 km/s
True Right ascension
04h 42m 41s
True Declination
0° 00' 00"
Sunlit
Object was in full shadow at epoch
Visualization orbit readout
Latitude
Unknown
Longitude
Unknown
Altitude
Unknown
Speed
Unknown
Apparent Right ascension
Unknown
Apparent Declination
Unknown
Sunlit
N/A
Visualization observer readout
Local Sidereal Time
17:26:52
Azimuth
Unknown
Elevation
Unknown
Doppler factor
Unknown
Orbital elements
Apogee altitude
584.615 km
Perigee altitude
577.143 km
Semi-major axis
6,959.016 km
Eccentricity
0.00054
Inclination
97.8132°
RAAN
70.6716°
Arg. of periapsis
167.5764°
True anomaly
192.54563°
Mean anomaly
192.559°
Eccentric anomaly
192.55232°
Mean motion
3.73871 °/min
Orbital period
96.29 mins
BSTAR
0.00042813
Loading maneuver chart data...
Computing Atmospheric mass density...
Loading historical data...
Loading historical data...
Loading historical data...
Loading historical data...
Loading historical data...
Loading historical data...
Loading historical data...

Documentation

Showing up to 5 results
|